Regional Weather Roundup
Issued by NWS

Home | Current Version | Previous Version | Graphics & Text | Print | Product List | Glossary On
Versions: 1 2 3 4 5 6 7 8 9 10 11 12 13 14 15 16 17 18 19 20 21 22 23 24 25 26 27 28 29 30 31 32 33 34 35 36 37 38 39 40 41 42 43 44 45 46 47 48 49 50
000
ASUS43 KMKX 272121
RWRWI

WISCONSIN REGIONAL WEATHER ROUNDUP
NATIONAL WEATHER SERVICE MILWAUKEE/SULLIVAN WI
400 PM CDT THU APR 27 2017

NOTE: "FAIR" INDICATES FEW OR NO CLOUDS BELOW 12,000 FEET WITH NO
SIGNIFICANT WEATHER AND/OR OBSTRUCTIONS TO VISIBILITY.

WIZ001-002-006>008-014>016-023>028-272200-
NORTHWEST WISCONSIN

CITY           SKY/WX    TMP DP  RH WIND       PRES   REMARKS
SUPERIOR ARPT  CLOUDY    32  22  66 NW9       29.57R WCI  24
ASHLAND        CLOUDY    29  23  78 W13G20    29.54R WCI  19
HAYWARD        CLOUDY    29  21  72 NW7       29.55R WCI  22
SIREN          CLOUDY    31  23  72 NW7       29.59R WCI  24
CUMBERLAND     CLOUDY    30  23  74 W15       29.57R WCI  19
RICE LAKE      CLOUDY    31  26  80 W9        29.59R WCI  23
CHETEK         CLOUDY    31  25  78 W8G18     29.58R WCI  24
LADYSMITH      CLOUDY    32  26  81 W15       29.57R WCI  21
EAU CLAIRE     CLOUDY    34  27  75 W15       29.59R WCI  24
MENOMONIE      CLOUDY    35  27  74 W14       29.60R WCI  25
NEW RICHMOND   CLOUDY    33  24  71 W12G17    29.60R WCI  24
OSCEOLA        CLOUDY    33  25  73 W12G18    29.64R WCI  24
$$

WIZ003>005-009-010-017-018-272200-
NORTH CENTRAL WISCONSIN

CITY           SKY/WX    TMP DP  RH WIND       PRES   REMARKS
MANITOWISH WTR CLOUDY    28  25  89 W9G17     29.48R WCI  19
ARBOR VITAE    CLOUDY    32  27  83 W13       29.47R WCI  22
WOODRUFF       CLOUDY    32  27  83 W13       29.47R WCI  22
RHINELANDER    CLOUDY    31  26  82 W15       29.49R WCI  20
EAGLE RIVER    LGT SNOW  29  24  81 W7        29.47R WCI  22
LAND O LAKES   CLOUDY    30  24  79 W10G17    29.47R HAZE    WCI  21
PHILLIPS       LGT SNOW  29  26  90 CALM      29.51R
TOMAHAWK       CLOUDY    30  26  83 W9G17     29.51R WCI  22
MEDFORD        CLOUDY    31  28  87 W15       29.52R WCI  21
MERRILL        CLOUDY    32  30  91 W6        29.52R WCI  27
$$

WIZ029-030-035-036-043>047-272200-
CENTRAL WISCONSIN

CITY           SKY/WX    TMP DP  RH WIND       PRES   REMARKS
WAUSAU         CLOUDY    33  29  85 W13       29.52R WCI  24
MOSINEE        CLOUDY    34  32  93 W12       29.55R FOG     WCI  25
MARSHFIELD     CLOUDY    34  30  85 W12G21    29.54R WCI  25
STEVENS POINT  DRIZZLE   34  32  92 W8        29.56R WCI  27
WAUPACA        CLOUDY    40  34  78 SW15      29.57R WCI  32
WAUTOMA        CLOUDY    39  34  82 W12       29.59R WCI  32
WISC RAPIDS    CLOUDY    38  33  82 W13       29.57R WCI  30
CAMP DOUGLAS   CLOUDY    39  36  87 W7        29.58R WCI  34
$$

WIZ011>013-019>022-031-037>040-048>050-272200-
NORTHEAST WISCONSIN

CITY           SKY/WX    TMP DP  RH WIND       PRES   REMARKS
ANTIGO         CLOUDY    31  29  94 W12       29.51R FOG     WCI  22
SHAWANO        FLURRIES  37  33  86 W7G16     29.55R WCI  31
OCONTO         CLOUDY    36  33  88 W16G22    29.54R WCI  26
STURGEON BAY   LGT RAIN  38  35  89 W17       29.53R WCI  28
GREEN BAY      CLOUDY    39  34  82 W16G24    29.56R WCI  30
MANITOWOC      CLOUDY    41  32  70 W16       29.58R
APPLETON       PTSUNNY   37  34  87 W12G17    29.55R WCI  30
CLINTONVILLE   CLOUDY    36  32  87 W12G17    29.55R WCI  27
OSHKOSH        CLOUDY    40  33  76 W12G21    29.58R WCI  33
$$

WIZ032>034-041-042-053>061-272200-
SOUTHWEST WISCONSIN

CITY           SKY/WX    TMP DP  RH WIND       PRES   REMARKS
LA CROSSE      CLOUDY    41  33  73 W15       29.61R
SPARTA         CLOUDY    39  35  83 W10G17    29.60R WCI  32
VIROQUA        CLOUDY    38  34  82 W15G21    29.60R WCI  30
BOSCOBEL       CLOUDY    44  32  62 W13G21    29.64R
PRAIRIE DU CHI CLOUDY    42  31  66 W15G21    29.65R
PLATTEVILLE    CLOUDY    41  34  76 W14G22    29.65S
$$

WIZ056-057-062-063-064-067-068-272200-
SOUTH CENTRAL WISCONSIN

CITY           SKY/WX    TMP DP  RH WIND       PRES   REMARKS
REEDSBURG      CLOUDY    40  37  88 W10G20    29.60R WCI  34
BARABOO/DELLS  LGT RAIN  41  35  79 W15       29.59R
LONE ROCK      CLOUDY    43  33  68 W14       29.62R
MINERAL POINT  CLOUDY    41  36  81 SW18      29.63R
MADISON        CLOUDY    44  35  70 W10G18    29.60R
MIDDLETON      CLOUDY    45  36  71 W13       29.62R
WATERTOWN      LGT RAIN  42  40  95 SW12      29.61R
MONROE         CLOUDY    41  34  75 W18G26    29.64R
JANESVILLE     LGT RAIN  43  41  93 SW15G23   29.64R
$$

WIZ051-052-058>065-066-070>072-272200-
SOUTHEAST WISCONSIN

CITY           SKY/WX    TMP DP  RH WIND       PRES   REMARKS
MILWAUKEE      LGT RAIN  45  38  76 SW14      29.63R
WAUKESHA       CLOUDY    39  36  87 SW13      29.63R WCI  32
MILWAUKEE/TIMM CLOUDY    43  34  70 W13G22    29.63R
RACINE         CLOUDY    44  36  73 SW17G28   29.66R
KENOSHA        CLOUDY    44  37  76 SW21      29.65R
FOND DU LAC    CLOUDY    41  32  70 W10G23    29.59R
SHEBOYGAN      CLOUDY    42  37  82 W24       29.60R
WEST BEND      CLOUDY    41  34  75 W16G23    29.60R
JUNEAU         CLOUDY    41  34  77 SW9       29.61R
$$

LSZ147-162-272200-
LAKE SUPERIOR

STATION/POSITION TIME  TEMP    WIND        PRES    WAVE
                       AIR SEA DIR/SP/G            HT/PER
                 (UTC) (F)     (DEG/KT/KT) (MB)    (FT/S)
DEVILS ISLAND    2100   29     300/ 14/ 17 1000.6R
PORT WING        2030   31     280/ 13/ 17 1001.0R
SAXON HARBOR     2030   29     280/  7/ 14 1000.3R
$$

LMZ867-665-643>646-272200-
LAKE MICHIGAN

STATION/POSITION TIME  TEMP    WIND        PRES    WAVE
                       AIR SEA DIR/SP/G            HT/PER
                 (UTC) (F)     (DEG/KT/KT) (MB)    (FT/S)
CHAMBERS ISLAND  2040   38     240/ 12/ 19  998.3R
N MID LAKE BUOY  2050   38 37  200/ 14/ 17  998.9R   3/ 4
NORTHPORT PIER   2040   40     270/  7/ 13  998.3R
SISTER BAY       2021   40     270/ 15/ 17   N/A
KEWAUNEE LAKESHO 2054   39     250/ 13/ 19 1000.4R
SHEBOYGAN LAKESH 2100   41     250/ 16/ 20 1002.2R
PORT WASHINGTON  2030   45     260/ 12/ 18 1003.4R
MILWAUKEE LAKESH 2100   43     240/ 13/ 16   N/A
S MID LAKE BUOY  2050   43 41  240/ 14/ 16 1004.7R   4/ 5
KENOSHA   LAKESH 2100   45     250/ 18/ 24 1004.7
$$

TC  - TEMPERATURE IN CELSIUS
VSB - VISIBILITY IN STATUTE MILES
WCI - WIND CHILL INDEX
HX  - HEAT INDEX





USA.gov is the U.S. government's official web portal to all federal, state and local government web resources and services.